Time,TemperatureF,DewpointF,PressureIn,WindDirection,WindDirectionDegrees,WindSpeedMPH,WindSpeedGustMPH,Humidity,HourlyPrecipIn,Conditions,Clouds,dailyrainin,SoftwareType,DateUTC
2013-01-18 00:03:00,33.0,32.0,30.27,SW,228,0.0,1.0,95,0.00,,,1.25,,2013-01-18 05:03:00,
2013-01-18 00:12:00,33.0,32.0,30.27,SW,228,0.0,1.0,95,0.00,,,1.25,,2013-01-18 05:12:00,
2013-01-18 00:22:00,33.0,32.0,30.28,SW,227,0.0,0.0,95,0.00,,,1.25,,2013-01-18 05:22:00,
2013-01-18 00:33:00,33.0,32.0,30.30,SW,228,0.0,0.0,95,0.00,,,1.25,,2013-01-18 05:33:00,
2013-01-18 00:42:00,33.0,32.0,30.30,SW,228,0.0,0.0,95,0.00,,,1.25,,2013-01-18 05:42:00,
2013-01-18 00:53:00,32.0,31.0,30.30,SW,227,0.0,0.0,95,0.00,,,1.24,,2013-01-18 05:53:00,
2013-01-18 01:02:00,32.0,31.0,30.30,SW,227,0.0,0.0,95,0.01,,,1.25,,2013-01-18 06:02:00,
2013-01-18 01:12:00,32.0,31.0,30.30,SW,227,0.0,0.0,95,0.01,,,1.25,,2013-01-18 06:12:00,
2013-01-18 01:22:00,32.0,31.0,30.33,SW,228,0.0,0.0,95,0.01,,,1.25,,2013-01-18 06:22:00,
2013-01-18 01:33:00,32.0,31.0,30.33,SW,228,0.0,0.0,95,0.01,,,1.25,,2013-01-18 06:33:00,
2013-01-18 01:43:00,32.0,31.0,30.33,SW,228,0.0,0.0,95,0.01,,,1.25,,2013-01-18 06:43:00,
2013-01-18 01:53:00,31.0,30.0,30.34,SW,227,0.0,0.0,95,0.01,,,1.21,,2013-01-18 06:53:00,
2013-01-18 02:02:00,31.0,30.0,30.35,SW,227,0.0,0.0,95,0.00,,,1.21,,2013-01-18 07:02:00,
2013-01-18 02:12:00,31.0,30.0,30.35,SW,227,0.0,0.0,95,0.00,,,1.21,,2013-01-18 07:12:00,
2013-01-18 02:22:00,31.0,30.0,30.35,SW,227,0.0,0.0,95,0.00,,,1.21,,2013-01-18 07:22:00,
2013-01-18 02:32:00,32.0,31.0,30.35,SW,227,0.0,0.0,95,0.00,,,1.21,,2013-01-18 07:32:00,
2013-01-18 02:42:00,32.0,31.0,30.35,SW,227,0.0,0.0,95,0.00,,,1.21,,2013-01-18 07:42:00,
2013-01-18 02:52:00,32.0,31.0,30.36,SW,228,0.0,0.0,95,0.00,,,1.21,,2013-01-18 07:52:00,
2013-01-18 03:02:00,31.0,30.0,30.36,SW,228,0.0,0.0,95,0.00,,,1.21,,2013-01-18 08:02:00,
2013-01-18 03:12:00,31.0,30.0,30.36,SW,228,0.0,0.0,95,0.00,,,1.21,,2013-01-18 08:12:00,
2013-01-18 03:22:00,31.0,30.0,30.37,SW,228,0.0,0.0,95,0.00,,,1.21,,2013-01-18 08:22:00,
2013-01-18 03:32:00,31.0,30.0,30.37,SW,228,0.0,1.0,95,0.00,,,1.21,,2013-01-18 08:32:00,
2013-01-18 03:42:00,31.0,30.0,30.37,SW,228,0.0,1.0,95,0.00,,,1.21,,2013-01-18 08:42:00,
2013-01-18 03:53:00,31.0,30.0,30.38,SW,227,0.0,0.0,95,0.00,,,1.21,,2013-01-18 08:53:00,
2013-01-18 04:03:00,30.0,29.0,30.38,SW,228,0.0,1.0,95,0.00,,,1.21,,2013-01-18 09:03:00,
2013-01-18 04:12:00,30.0,29.0,30.38,SW,228,0.0,1.0,95,0.00,,,1.21,,2013-01-18 09:12:00,
2013-01-18 04:22:00,30.0,29.0,30.38,SW,228,0.0,0.0,95,0.00,,,1.21,,2013-01-18 09:22:00,
2013-01-18 04:33:00,30.0,29.0,30.38,SW,228,0.0,0.0,95,0.00,,,1.21,,2013-01-18 09:33:00,
2013-01-18 04:42:00,30.0,29.0,30.38,SW,228,0.0,0.0,95,0.00,,,1.21,,2013-01-18 09:42:00,
2013-01-18 04:53:00,29.0,28.0,30.39,SW,228,0.0,0.0,95,0.00,,,1.21,,2013-01-18 09:53:00,
2013-01-18 05:03:00,29.0,28.0,30.39,SW,227,0.0,0.0,95,0.00,,,1.21,,2013-01-18 10:03:00,
2013-01-18 05:12:00,29.0,28.0,30.39,SW,227,0.0,0.0,95,0.00,,,1.21,,2013-01-18 10:12:00,
2013-01-18 05:22:00,29.0,28.0,30.40,SW,228,0.0,0.0,95,0.00,,,1.21,,2013-01-18 10:22:00,
2013-01-18 05:32:00,29.0,28.0,30.41,SW,227,0.0,0.0,95,0.00,,,1.21,,2013-01-18 10:32:00,
2013-01-18 05:43:00,29.0,28.0,30.41,SW,227,0.0,0.0,95,0.00,,,1.21,,2013-01-18 10:43:00,
2013-01-18 05:52:00,28.0,27.0,30.40,SW,228,0.0,0.0,95,0.00,,,1.21,,2013-01-18 10:52:00,
2013-01-18 06:02:00,28.0,27.0,30.41,SW,227,0.0,0.0,95,0.00,,,1.21,,2013-01-18 11:02:00,
2013-01-18 06:12:00,28.0,27.0,30.41,SW,227,0.0,0.0,95,0.00,,,1.21,,2013-01-18 11:12:00,
2013-01-18 06:23:00,29.0,28.0,30.41,SW,228,0.0,1.0,95,0.00,,,1.21,,2013-01-18 11:23:00,
2013-01-18 06:32:00,29.0,28.0,30.42,SW,227,0.0,0.0,95,0.00,,,1.21,,2013-01-18 11:32:00,
2013-01-18 06:42:00,29.0,28.0,30.42,SW,227,0.0,0.0,95,0.00,,,1.21,,2013-01-18 11:42:00,
2013-01-18 06:53:00,28.0,27.0,30.43,SW,227,0.0,0.0,95,0.00,,,1.21,,2013-01-18 11:53:00,
2013-01-18 07:03:00,28.0,27.0,30.43,SW,228,0.0,0.0,95,0.00,,,1.21,,2013-01-18 12:03:00,
2013-01-18 07:12:00,28.0,27.0,30.43,SW,228,0.0,0.0,95,0.00,,,1.21,,2013-01-18 12:12:00,
2013-01-18 07:23:00,28.0,27.0,30.44,East,79,0.0,0.0,95,0.00,,,1.21,,2013-01-18 12:23:00,
2013-01-18 07:33:00,28.0,27.0,30.44,East,79,0.0,0.0,95,0.00,,,1.21,,2013-01-18 12:33:00,
2013-01-18 07:43:00,28.0,27.0,30.44,East,79,0.0,0.0,95,0.00,,,1.21,,2013-01-18 12:43:00,
2013-01-18 07:53:00,28.0,27.0,30.46,East,79,0.0,0.0,95,0.00,,,1.21,,2013-01-18 12:53:00,
2013-01-18 08:03:00,28.0,27.0,30.47,East,79,0.0,0.0,95,0.00,,,1.21,,2013-01-18 13:03:00,
2013-01-18 08:12:00,28.0,27.0,30.47,East,79,0.0,0.0,95,0.00,,,1.21,,2013-01-18 13:12:00,
2013-01-18 08:23:00,27.0,26.0,30.48,East,79,0.0,0.0,95,0.00,,,1.21,,2013-01-18 13:23:00,
2013-01-18 08:33:00,27.0,26.0,30.49,East,79,0.0,0.0,95,0.00,,,1.21,,2013-01-18 13:33:00,
2013-01-18 08:43:00,27.0,26.0,30.49,East,79,0.0,0.0,95,0.00,,,1.21,,2013-01-18 13:43:00,
2013-01-18 08:53:00,28.0,27.0,30.50,East,79,0.0,0.0,95,0.00,,,1.18,,2013-01-18 13:53:00,
2013-01-18 09:03:00,29.0,28.0,30.51,East,79,0.0,0.0,95,0.00,,,1.18,,2013-01-18 14:03:00,
2013-01-18 09:12:00,29.0,28.0,30.51,East,79,0.0,0.0,95,0.00,,,1.18,,2013-01-18 14:12:00,
2013-01-18 09:23:00,30.0,29.0,30.53,East,79,0.0,0.0,95,0.00,,,1.18,,2013-01-18 14:23:00,
2013-01-18 09:33:00,32.0,31.0,30.53,East,79,0.0,0.0,96,0.00,,,1.18,,2013-01-18 14:33:00,
2013-01-18 09:43:00,32.0,31.0,30.53,East,79,0.0,0.0,96,0.00,,,1.18,,2013-01-18 14:43:00,
2013-01-18 09:53:00,33.0,32.0,30.55,East,79,0.0,0.0,95,0.00,,,1.16,,2013-01-18 14:53:00,
2013-01-18 10:03:00,34.0,33.0,30.56,East,79,0.0,0.0,95,0.00,,,1.16,,2013-01-18 15:03:00,
2013-01-18 10:13:00,34.0,33.0,30.56,East,79,0.0,0.0,95,0.00,,,1.16,,2013-01-18 15:13:00,
2013-01-18 10:23:00,35.0,34.0,30.58,East,79,0.0,0.0,95,0.01,,,1.17,,2013-01-18 15:23:00,
2013-01-18 10:34:00,35.0,34.0,30.58,East,79,0.0,1.0,95,0.01,,,1.17,,2013-01-18 15:34:00,
2013-01-18 10:43:00,35.0,34.0,30.58,East,79,0.0,1.0,95,0.01,,,1.17,,2013-01-18 15:43:00,
2013-01-18 10:54:00,36.0,34.0,30.59,East,95,0.0,2.0,94,0.02,,,1.18,,2013-01-18 15:54:00,
2013-01-18 11:03:00,37.0,35.0,30.58,ENE,67,1.0,3.0,92,0.02,,,1.18,,2013-01-18 16:03:00,
2013-01-18 11:13:00,37.0,35.0,30.58,ENE,67,1.0,3.0,92,0.02,,,1.18,,2013-01-18 16:13:00,
2013-01-18 11:23:00,38.0,34.0,30.59,SW,235,0.0,3.0,85,0.01,,,1.18,,2013-01-18 16:23:00,
2013-01-18 11:33:00,39.0,33.0,30.59,SW,225,0.0,3.0,80,0.01,,,1.18,,2013-01-18 16:33:00,
2013-01-18 11:42:00,39.0,33.0,30.59,SW,225,0.0,3.0,80,0.01,,,1.18,,2013-01-18 16:42:00,
2013-01-18 11:53:00,40.0,32.0,30.59,SW,225,0.0,3.0,73,0.00,,,1.12,,2013-01-18 16:53:00,
2013-01-18 12:03:00,41.0,32.0,30.58,South,191,0.0,3.0,71,0.00,,,1.12,,2013-01-18 17:03:00,
2013-01-18 12:13:00,41.0,32.0,30.58,South,191,0.0,3.0,71,0.00,,,1.12,,2013-01-18 17:13:00,
2013-01-18 12:23:00,42.0,31.0,30.58,WSW,252,0.0,4.0,64,0.00,,,1.12,,2013-01-18 17:23:00,
2013-01-18 12:33:00,42.0,28.0,30.58,WSW,253,1.0,7.0,57,0.00,,,1.12,,2013-01-18 17:33:00,
2013-01-18 12:43:00,42.0,28.0,30.58,WSW,253,1.0,7.0,57,0.00,,,1.12,,2013-01-18 17:43:00,
2013-01-18 12:53:00,43.0,29.0,30.57,SW,223,1.0,4.0,57,0.00,,,1.12,,2013-01-18 17:53:00,
2013-01-18 13:03:00,44.0,29.0,30.57,WSW,255,0.0,2.0,55,0.00,,,1.10,,2013-01-18 18:03:00,
2013-01-18 13:13:00,44.0,29.0,30.57,WSW,255,0.0,2.0,55,0.00,,,1.10,,2013-01-18 18:13:00,
2013-01-18 13:23:00,45.0,30.0,30.56,SW,230,1.0,4.0,55,0.00,,,1.10,,2013-01-18 18:23:00,
2013-01-18 13:33:00,45.0,28.0,30.56,SW,227,0.0,4.0,52,0.00,,,1.10,,2013-01-18 18:33:00,
2013-01-18 13:43:00,45.0,28.0,30.56,SW,227,0.0,4.0,52,0.00,,,1.10,,2013-01-18 18:43:00,
2013-01-18 13:53:00,45.0,28.0,30.55,WSW,240,0.0,3.0,52,0.00,,,1.07,,2013-01-18 18:53:00,
2013-01-18 14:03:00,45.0,28.0,30.56,SW,229,0.0,3.0,51,0.00,,,1.07,,2013-01-18 19:03:00,
2013-01-18 14:13:00,45.0,28.0,30.56,SW,229,0.0,3.0,51,0.00,,,1.07,,2013-01-18 19:13:00,
2013-01-18 14:23:00,46.0,27.0,30.55,SW,214,2.0,5.0,47,0.00,,,1.07,,2013-01-18 19:23:00,
2013-01-18 14:33:00,46.0,27.0,30.55,WNW,291,1.0,4.0,47,0.00,,,1.07,,2013-01-18 19:33:00,
2013-01-18 14:43:00,46.0,27.0,30.55,WNW,291,1.0,4.0,47,0.00,,,1.07,,2013-01-18 19:43:00,
2013-01-18 14:53:00,46.0,26.0,30.55,WSW,250,1.0,5.0,46,0.00,,,1.02,,2013-01-18 19:53:00,
2013-01-18 15:03:00,46.0,27.0,30.55,WSW,240,0.0,5.0,48,0.00,,,1.02,,2013-01-18 20:03:00,
2013-01-18 15:13:00,46.0,27.0,30.55,WSW,240,0.0,5.0,48,0.00,,,1.02,,2013-01-18 20:13:00,
2013-01-18 15:23:00,46.0,27.0,30.55,SW,230,2.0,6.0,47,0.00,,,1.02,,2013-01-18 20:23:00,
2013-01-18 15:33:00,46.0,27.0,30.56,WSW,238,0.0,3.0,47,0.00,,,1.02,,2013-01-18 20:33:00,
2013-01-18 15:43:00,46.0,27.0,30.56,WSW,238,0.0,3.0,47,0.00,,,1.02,,2013-01-18 20:43:00,
2013-01-18 15:53:00,47.0,28.0,30.55,WSW,241,0.0,3.0,48,0.00,,,0.95,,2013-01-18 20:53:00,
2013-01-18 16:03:00,48.0,28.0,30.55,SW,222,0.0,4.0,46,0.00,,,0.95,,2013-01-18 21:03:00,
2013-01-18 16:13:00,48.0,28.0,30.55,SW,222,0.0,4.0,46,0.00,,,0.95,,2013-01-18 21:13:00,
2013-01-18 16:23:00,47.0,27.0,30.56,WSW,238,0.0,2.0,45,0.00,,,0.95,,2013-01-18 21:23:00,
2013-01-18 16:33:00,47.0,28.0,30.56,WSW,238,0.0,1.0,47,0.00,,,0.95,,2013-01-18 21:33:00,
2013-01-18 16:43:00,47.0,28.0,30.56,WSW,238,0.0,1.0,47,0.00,,,0.95,,2013-01-18 21:43:00,
2013-01-18 16:53:00,46.0,27.0,30.57,WSW,247,0.0,1.0,48,0.00,,,0.77,,2013-01-18 21:53:00,
2013-01-18 17:03:00,46.0,27.0,30.57,WSW,248,1.0,3.0,48,0.00,,,0.77,,2013-01-18 22:03:00,
2013-01-18 17:12:00,46.0,27.0,30.57,WSW,248,1.0,3.0,48,0.00,,,0.77,,2013-01-18 22:12:00,
2013-01-18 17:23:00,45.0,27.0,30.58,WSW,247,0.0,1.0,48,0.00,,,0.77,,2013-01-18 22:23:00,
2013-01-18 17:33:00,45.0,28.0,30.58,WSW,248,0.0,3.0,51,0.00,,,0.77,,2013-01-18 22:33:00,
2013-01-18 17:43:00,45.0,28.0,30.58,WSW,248,0.0,3.0,51,0.00,,,0.77,,2013-01-18 22:43:00,
2013-01-18 17:53:00,45.0,30.0,30.58,WSW,248,0.0,0.0,55,0.00,,,0.77,,2013-01-18 22:53:00,
2013-01-18 18:03:00,43.0,31.0,30.58,WSW,248,0.0,1.0,62,0.00,,,0.51,,2013-01-18 23:03:00,
2013-01-18 18:12:00,43.0,31.0,30.58,WSW,248,0.0,1.0,62,0.00,,,0.51,,2013-01-18 23:12:00,
2013-01-18 18:23:00,41.0,31.0,30.58,WSW,248,0.0,0.0,67,0.00,,,0.51,,2013-01-18 23:23:00,
2013-01-18 18:33:00,40.0,30.0,30.59,WSW,248,0.0,0.0,67,0.00,,,0.51,,2013-01-18 23:33:00,
2013-01-18 18:43:00,40.0,30.0,30.59,WSW,248,0.0,0.0,67,0.00,,,0.51,,2013-01-18 23:43:00,
2013-01-18 18:53:00,37.0,28.0,30.59,WSW,245,0.0,0.0,71,0.00,,,0.31,,2013-01-18 23:53:00,
2013-01-18 19:02:00,36.0,28.0,30.59,WSW,244,0.0,1.0,73,0.00,,,0.31,,2013-01-19 00:02:00,
2013-01-18 19:12:00,36.0,28.0,30.59,WSW,244,0.0,1.0,73,0.00,,,0.31,,2013-01-19 00:12:00,
2013-01-18 19:23:00,35.0,29.0,30.59,WSW,244,0.0,0.0,78,0.00,,,0.31,,2013-01-19 00:23:00,
2013-01-18 19:33:00,34.0,28.0,30.59,WSW,244,0.0,0.0,80,0.00,,,0.31,,2013-01-19 00:33:00,
2013-01-18 19:43:00,34.0,28.0,30.59,WSW,244,0.0,0.0,80,0.00,,,0.31,,2013-01-19 00:43:00,
2013-01-18 19:53:00,33.0,28.0,30.60,WSW,244,0.0,0.0,81,0.00,,,0.26,,2013-01-19 00:53:00,
2013-01-18 20:02:00,33.0,28.0,30.60,WSW,244,0.0,0.0,81,0.00,,,0.26,,2013-01-19 01:02:00,
2013-01-18 20:12:00,33.0,28.0,30.60,WSW,244,0.0,0.0,81,0.00,,,0.26,,2013-01-19 01:12:00,
2013-01-18 20:22:00,32.0,27.0,30.60,WSW,244,0.0,0.0,83,0.00,,,0.26,,2013-01-19 01:22:00,
2013-01-18 20:33:00,31.0,26.0,30.60,WSW,244,0.0,0.0,83,0.00,,,0.26,,2013-01-19 01:33:00,
2013-01-18 20:42:00,31.0,26.0,30.60,WSW,244,0.0,0.0,83,0.00,,,0.26,,2013-01-19 01:42:00,
2013-01-18 20:53:00,31.0,27.0,30.59,WSW,244,0.0,0.0,85,0.00,,,0.16,,2013-01-19 01:53:00,
2013-01-18 21:02:00,30.0,26.0,30.59,WSW,244,0.0,0.0,85,0.00,,,0.16,,2013-01-19 02:02:00,
2013-01-18 21:12:00,30.0,26.0,30.59,WSW,244,0.0,0.0,85,0.00,,,0.16,,2013-01-19 02:12:00,
2013-01-18 21:23:00,30.0,26.0,30.60,WSW,244,0.0,0.0,86,0.00,,,0.16,,2013-01-19 02:23:00,
2013-01-18 21:33:00,29.0,26.0,30.60,WSW,244,0.0,0.0,87,0.00,,,0.16,,2013-01-19 02:33:00,
2013-01-18 21:43:00,29.0,26.0,30.60,WSW,244,0.0,0.0,87,0.00,,,0.16,,2013-01-19 02:43:00,
2013-01-18 21:53:00,29.0,26.0,30.60,WSW,244,0.0,0.0,87,0.00,,,0.06,,2013-01-19 02:53:00,
2013-01-18 22:03:00,29.0,26.0,30.60,WSW,244,0.0,0.0,88,0.00,,,0.06,,2013-01-19 03:03:00,
2013-01-18 22:12:00,29.0,26.0,30.60,WSW,244,0.0,0.0,88,0.00,,,0.06,,2013-01-19 03:12:00,
2013-01-18 22:22:00,29.0,26.0,30.60,WSW,244,0.0,0.0,88,0.00,,,0.06,,2013-01-19 03:22:00,
2013-01-18 22:33:00,29.0,26.0,30.60,WSW,244,0.0,0.0,89,0.00,,,0.06,,2013-01-19 03:33:00,
2013-01-18 22:43:00,29.0,26.0,30.60,WSW,244,0.0,0.0,89,0.00,,,0.06,,2013-01-19 03:43:00,
2013-01-18 22:53:00,29.0,26.0,30.60,WSW,244,0.0,0.0,89,0.00,,,0.04,,2013-01-19 03:53:00,
2013-01-18 23:02:00,29.0,26.0,30.60,WSW,244,0.0,0.0,89,0.00,,,0.04,,2013-01-19 04:02:00,
2013-01-18 23:12:00,29.0,26.0,30.60,WSW,244,0.0,0.0,89,0.00,,,0.04,,2013-01-19 04:12:00,
2013-01-18 23:22:00,28.0,25.0,30.59,WSW,244,0.0,0.0,90,0.00,,,0.04,,2013-01-19 04:22:00,
2013-01-18 23:32:00,28.0,25.0,30.59,WSW,244,0.0,0.0,90,0.00,,,0.04,,2013-01-19 04:32:00,
2013-01-18 23:42:00,28.0,25.0,30.59,WSW,244,0.0,0.0,90,0.00,,,0.04,,2013-01-19 04:42:00,
2013-01-18 23:53:00,28.0,25.0,30.59,WSW,244,0.0,0.0,90,0.00,,,0.03,,2013-01-19 04:53:00,